Regional Weather Roundup
Issued by NWS Wakefield, VA

Home | Current Version | Previous Version | Graphics & Text | Print | Product List | Glossary On
Versions: 1 2 3 4 5 6 7 8 9 10 11 12 13 14 15 16 17 18 19 20 21 22 23 24 25 26 27 28 29 30 31 32 33 34 35 36 37 38 39 40 41 42 43 44 45 46 47 48 49
602
ASUS41 KAKQ 130615
RWRAKQ

REGIONAL WEATHER ROUNDUP
NATIONAL WEATHER SERVICE WAKEFIELD VA
100 AM EST SAT FEB 13 2016

Note: "fair" indicates few or no clouds below 12,000 feet with no
significant weather and/or obstructions to visibility. * = Denotes
station may not report precipitation (e.g., rain,snow,etc.),
thunder or fog.

VAZ042-051-052>054-056-130700-
NORTHERN VIRGINIA

CITY           SKY/WX    TMP DP  RH WIND       PRES   REMARKS
WASH NATIONAL  FAIR      27  17  66 W8        30.01F
DULLES         FAIR      23  17  78 W8        29.99F
FORT BELVOIR   FAIR      24  17  75 CALM      30.01S
QUANTICO       CLOUDY    27  17  66 NW3       30.03S
FREDERICKSBRG* CLOUDY    27  19  70 CALM      30.01S
STAFFORD*      MOCLDY    24  17  74 CALM      30.05S
WARRENTON      MOCLDY    25  21  87 CALM      30.00S
CULPEPER*      MOCLDY    25  20  83 CALM      30.02S
MANASSAS*      FAIR      21  19  93 CALM      30.01S
LEESBURG*      FAIR      27  18  69 W10       29.99F WCI  17
WINCHESTER     CLOUDY    27  16  63 NW13      29.97S WCI  16
FRONT ROYAL*   CLOUDY    27  12  54 SW6       29.96F
LURAY*         FAIR      25  16  68 W7        29.96F
$$

VAZ048-049-060>072-079>083-130700-
CENTRAL AND SOUTH CENTRAL VIRGINIA

CITY           SKY/WX    TMP DP  RH WIND       PRES   REMARKS
RICHMOND       MOCLDY    24  19  81 CALM      30.01S
CHESTERFIELD*  CLOUDY    25   9  50 CALM      30.02S
PETERSBURG*    CLOUDY    26  21  79 CALM      30.02R
HANOVER        MOCLDY    25  16  68 CALM      30.03R
TAPPAHANNOCK*  FAIR      25  18  75 W3        30.02R
QUINTON*       CLOUDY    24  21  89 CALM      30.01S
CHARLOTTSVILLE MOCLDY    30   7  37 NW14G21   29.98S WCI  19
GORDONSVILLE*  MOCLDY    29  13  50 N3        30.00S
ORANGE*        FAIR      27  19  74 CALM      30.02S
LOUISA*        CLOUDY    30  19  64 W8G18     29.99R
BUMPASS*       CLOUDY    27  19  72 CALM      30.00S
FARMVILLE*     CLOUDY    32  17  53 CALM      29.99S
CREWE*         CLOUDY    29  20  67 NW3       30.00S
FORT PICKETT*  CLOUDY    28  19  67 CALM      30.00S
CHASE CITY*    CLOUDY    32  18  55 CALM      30.00F
CLARKSVILLE*   CLOUDY    32  19  59 CALM      30.01F
SOUTH HILL*    CLOUDY    27  19  73 CALM      30.07S
LAWRENCEVILLE* CLOUDY    26  20  77 CALM      30.01S
EMPORIA*       CLOUDY    28  19  69 SW3       30.04S
$$

VAZ088>098-130700-
SOUTHEAST VIRGINIA

CITY           SKY/WX    TMP DP  RH WIND       PRES   REMARKS
NORFOLK        FAIR      27  21  78 CALM      30.01S
VIRGINIA BEACH FAIR      27  21  78 W5        30.01R
NORFOLK NAVAL  MOCLDY    29  22  75 NW10      30.03R WCI  20
WEST POINT*    CLOUDY    27  21  77 SW3       30.03S
SALUDA*        CLOUDY    25  22  88 CALM      30.01S
NEWPORT NEWS   MOCLDY    26  22  84 W3        30.02S
LANGLEY AFB    CLOUDY    26  23  89 W6        30.01S
FORT EUSTIS    CLOUDY    28  24  87 W7        30.00S
WILLIAMSBURG*  MOCLDY    28  25  86 CALM      30.03S
HR EXEC AP*    FAIR      18  14  86 CALM      30.04R
FRANKLIN*      CLOUDY    26  21  83 CALM      30.03S
US460-WAKEFLD  MOCLDY    20  17  88 CALM      30.02S
$$

VAZ020-022-025-037-045-130700-
WEST CENTRAL AND SOUTHWEST VIRGINIA

CITY           SKY/WX    TMP DP  RH WIND       PRES   REMARKS
STAUNTON*      FAIR      30   7  37 W14G26    29.97F WCI  19
WAYNESBORO*    CLOUDY    26   5  41 NW9G20    29.95S
HOT SPRINGS VA CLOUDY    15   8  73 W21G37    29.77S WCI  -2
LYNCHBURG      CLOUDY    30  14  51 VRB7      29.99F
DANVILLE       CLOUDY    36  16  44 NW10G17   30.02F
SOUTH BOSTON*  CLOUDY    33  18  55 W7        30.02S
MARTINSVILLE   MOCLDY    31  12  45 W8        30.03F
ROANOKE        FAIR      29   9  43 NW28G37   30.00F WCI  14
BLACKSBURG     MOCLDY    25  13  61 W14G22    29.99S WCI  13
DUBLIN*        FLURRIES  26  17  67 NW28G37   29.99F WCI  11
MARION*        LGT SNOW  24  18  80 W24G36    30.03R VSB 3/4 WCI   8
HILLSVILLE*    MOCLDY    24  16  70 NW22G36   29.91S WCI   9
RICHLANDS*     CLOUDY    21  10  63 NW13G18   30.05S WCI   9
WISE*          CLOUDY    23  12  63 NW14      30.11R WCI  11
ABINGDON*      LGT SNOW  26  21  80 N10G20    30.10R WCI  17
$$

MDZ021>025-VAZ099-100-130700-
SOUTHERN MARYLAND AND THE DELMARVA PENINSULA

CITY           SKY/WX    TMP DP  RH WIND       PRES   REMARKS
PATUXENT RIVER CLOUDY    27  16  63 NW9       30.01S
BAY BRIDGE APT   N/A     28  18  64 CALM        N/A
LEONARDTOWN      N/A     27  16  63 MISG        N/A
DOVER          MOCLDY    23  20  87 W8        29.96F
GEORGETOWN     CLEAR     21  19  92 W5        29.99S
EASTON         PTCLDY    28  17  64 NW9G16    30.03S
CAMBRIDGE      PTCLDY    27  18  69 W5        29.99F
SALISBURY      CLOUDY    23  19  85 SW5       29.99S
OCEAN CITY     CLOUDY    23  19  85 NW3       29.99F
WALLOPS ISLAND CLOUDY    22  20  92 W3        30.00S
ACCOMACK*      CLOUDY    28  21  74 NW9       30.00R
$$

NCZ012>017-030>032-130700-
NORTH CENTRAL AND EASTERN NORTH CAROLINA

CITY           SKY/WX    TMP DP  RH WIND       PRES   REMARKS
ROANOKE RAPIDS CLOUDY    30  23  74 W6        30.03S
RALEIGH        MOCLDY    31  23  72 CALM      30.03S
ELIZABETH CITY MOCLDY    24  23  96 W5        30.02S
AHOSKIE*       NOT AVBL
EDENTON*       MOCLDY    31  27  83 W6        30.02S
CURRITUCK*     PTCLDY    26  25  99 CALM      30.02S
KILL DEVIL HLS MOCLDY    29  28  94 NW7       30.00R
MANTEO         CLOUDY    31  29  92 N7        30.01S
CAPE HATTERAS  CLOUDY    34  31  88 NW10G20   30.01S
TARBORO*       CLOUDY    30  26  85 W3        30.05R
GOLDSBORO      CLOUDY    32  32 100 W5        30.02S
WASHINGTON     CLOUDY    29  26  88 W5        30.04R
GREENVILLE     PTCLDY    30  28  93 CALM      30.06R
NEW BERN       CLOUDY    31  29  92 NW6       30.04F
WILMINGTON     CLOUDY    32  29  88 W6        30.05R FOG
$$

VAZ048-130700-
ELSEWHERE

CITY           SKY/WX    TMP DP  RH WIND       PRES   REMARKS
HARRISBURG PA  CLOUDY    21  13  71 VRB3      29.94F
BALTIMORE      PTCLDY    20  15  81 SW3       29.99S
ANNAPOLIS      PTCLDY    25  16  68 W6        30.00S
ANDREWS AFB    FAIR      26  16  66 W9        29.98F
PHILADELPHIA   CLOUDY    23  16  74 W10       29.97F WCI  12
HENDERSON NC   CLOUDY    31  20  64 CALM      30.02S
GREENSBORO     CLOUDY    35  17  47 NW14G22   30.01S
ROCKY MOUNT    MOCLDY    29  25  85 W3        30.04S
$$

VAZ100-130700-
MARINE

STATION/POSITION TIME  TEMP    WIND        PRES    WAVE   SWELL
                       AIR SEA DIR/SP/G            HT/PER HT/PER
                 (UTC) (F)     (DEG/KT/KT) (MB)    (FT/S) (FT/S)
BRANDYWINE LGT   0500   25     260/  9/ 11 1015.3S
CAPE MAY NJ      0500   26 38  270/  8/ 10 1014.9F
LEWES DE         0500   23 38  260/  3/  4 1015.4S
15NM E FENWICK I 0550   28 42              1014.9F   1/10
OCEAN-CITY-INLET 0500   24 40  300/  3/  5 1014.8F
WACHAPREAGUE VA  0500   23 37   CALM  /  1 1015.8S
THOMAS POINT MD  0600   27 36  270/  8/ 10 1016.6F
GOOSES REEF MD   0500   29 37  300/ 10/ 12 1017.3R   1
COVE POINT MD    0500   27     310/  6/  9 1016.8R
SOLOMONS ISLAND  0500   29 39  280/  4/  7   N/A
BISHOPS HEAD MD  0512   29 33  300/ 15/ 16 1015.0
PINEY POINT MD   0500          310/  9/ 10   N/A
POTOMAC MD       0500   29 38  300/ 10/ 12 1015.1S   0
CAMBRIDGE MD     0500   26 37  270/  4/  5 1015.3R
LEWISETTA VA     0500   27 37  290/  5/  6 1016.0R
RAPPAHANNOCK LGT 0500          280/ 12/ 15 1016.1R
STINGRAY PT      0500   29 40  280/ 10/ 12 1016.0S   0
YORK RVR RNG VA  0500   29     310/  8/ 11 1015.6R
YORKTOWN VA      0500   27 41  280/  5/  6 1016.1R
JAMESTOWN VA     0500   27 40  280/  4/  6   N/A     0
DOMINION TERM VA 0500   29     300/ 11/ 12 1016.1R
KIPTOPEKE VA     0500      40  310/ 16/ 20   N/A
CHES BAY BRIDGE  0500   29 41  280/ 12/ 12 1015.7S
CAPE HENRY VA    0500   29     280/ 12/ 15   N/A
CHESAPEAKE LGHT  0500   30     300/ 16/ 17 1016.5F
WILLOUBY STN VA  0500   29     300/ 12/ 13 1016.9S
1ST LANDING BUOY 0500      41                N/A     1/ 4
64NM E OF VA BCH 0550   36 48  300/ 21/ 25 1014.3R   3/ 4   2/ 7
DUCK PIER NC     0500   28     300/ 13/ 16 1015.5R
OREGON INLET NC  0500   31 41  290/ 11/ 15 1015.8R
HATTERAS NC      0500   35 45  300/ 18/ 20 1015.5R
DIAMOND SHLS NC  0550   43 71  310/ 21/ 25 1015.9R   5/ 8   3/ 8
$$




USA.gov is the U.S. government's official web portal to all federal, state and local government web resources and services.